Latest Coastal Weather Observations for North Island

IDW60701

Issued at 1:33 am WST Thursday 3 September 2026 (issued every 10 minutes, with the page automatically refreshed every 10 minutes)

About coastal observations | Map of coastal stations | Coastal observations for WA | Marine services | Other Formats
Station Details ID: 008290 Name: NORTH ISLAND Lat: -28.30 Lon: 113.59 Height: 2.2 m
Data from the previous 72 hours. | See also: Recent months at North Island
Date/Time
WST
Wind Sea
Height
m
Swell Vis
km
Cloud Weather Temp
°C
Press
MSL
hPa
Rain since
9am
mm
Dir  Spd
kts
Gust
kts
Height
m
Period
s
Dir
03/01:30am SE 9 11 - - - - - - - 17.1 1021.6 -
03/01:00am SSE 11 15 - - - - - - - 17.2 1021.8 -
03/12:30am SSE 9 13 - - - - - - - 17.2 1022.0 -
03/12:00am SE 13 17 - - - - - - - 17.0 1022.2 -
 
Date/Time
WST
Wind Sea
Height
m
Swell Vis
km
Cloud Weather Temp
°C
Press
MSL
hPa
Rain since
9am
mm
Dir  Spd
kts
Gust
kts
Height
m
Period
s
Dir
02/11:30pm SSE 14 21 - - - - - - - 17.0 1022.3 -
02/11:00pm - - - - - - - - - - 17.0 1022.7 -
02/09:30pm SSE 12 15 - - - - - - - 16.9 1023.2 -
02/09:00pm SSE 15 20 - - - - - - - 17.1 1023.1 -
02/08:30pm ESE 11 16 - - - - - - - 17.2 1023.2 -
02/08:00pm SE 12 14 - - - - - - - 17.0 1023.1 -
02/07:30pm SE 12 15 - - - - - - - 16.7 1022.9 -
02/07:00pm ESE 11 13 - - - - - - - 16.6 1022.7 -
02/06:30pm SE 11 13 - - - - - - - 16.8 1022.5 -
02/06:00pm SE 9 11 - - - - - - - 16.8 1022.4 -
02/05:30pm SE 9 12 - - - - - - - 18.1 1022.3 0.0
02/05:00pm SE 9 13 - - - - - - - 18.2 1022.3 0.0
02/04:30pm SE 10 14 - - - - - - - 19.0 1022.1 0.0
02/04:00pm SE 10 13 - - - - - - - 19.0 1022.1 0.0
02/03:30pm SE 12 17 - - - - - - - 20.0 1022.2 0.0
02/03:00pm SE 13 16 - - - - - - - 19.5 1022.4 0.0
02/02:30pm SE 12 16 - - - - - - - 19.7 1022.3 0.0
02/02:00pm SE 13 15 - - - - - - - 18.9 1022.5 0.0
02/01:30pm SSE 14 18 - - - - - - - 19.1 1022.9 0.0
02/01:00pm SSE 12 16 - - - - - - - 19.3 1023.3 0.0
02/12:30pm SSE 11 14 - - - - - - - 20.6 1023.7 0.0
02/12:00pm SSE 11 14 - - - - - - - 20.3 1024.0 0.0
02/11:30am SSE 11 14 - - - - - - - 19.7 1024.4 0.0
02/11:00am SSE 12 15 - - - - - - - 19.8 1024.6 0.0
02/10:30am S 12 16 - - - - - - - 19.4 1024.6 0.0
02/10:00am S 13 16 - - - - - - - 19.3 1024.5 0.0
02/09:30am S 12 16 - - - - - - - 19.4 1024.5 0.0
02/09:00am S 12 14 - - - - - - - 18.9 1024.4 -
02/08:30am S 12 17 - - - - - - - 17.9 1024.3 -
02/08:00am S 10 13 - - - - - - - 17.7 1024.1 -
02/07:30am S 10 13 - - - - - - - 17.0 1023.9 -
02/07:00am S 11 14 - - - - - - - 16.6 1023.5 -
02/06:30am S 12 16 - - - - - - - 15.9 1023.4 -
02/06:00am S 13 16 - - - - - - - 15.8 1023.2 -
02/05:30am SSW 13 16 - - - - - - - 15.9 1023.0 -
02/05:00am SSW 15 20 - - - - - - - 16.2 1023.0 -
02/04:30am SSW 15 20 - - - - - - - 16.8 1022.9 -
02/04:00am SSW 11 14 - - - - - - - 16.0 1022.9 -
02/03:30am SW 12 16 - - - - - - - 15.9 1023.1 -
02/03:00am SW 16 20 - - - - - - - 16.7 1023.0 -
02/02:30am SSW 14 18 - - - - - - - 17.4 1023.2 -
02/02:00am SSW 13 16 - - - - - - - 17.3 1023.2 -
02/01:30am S 13 16 - - - - - - - 17.3 1023.3 -
02/01:00am S 10 13 - - - - - - - 17.2 1023.6 -
02/12:30am S 11 14 - - - - - - - 17.0 1023.8 -
02/12:00am S 12 16 - - - - - - - 17.0 1024.0 -
 
Date/Time
WST
Wind Sea
Height
m
Swell Vis
km
Cloud Weather Temp
°C
Press
MSL
hPa
Rain since
9am
mm
Dir  Spd
kts
Gust
kts
Height
m
Period
s
Dir
01/11:30pm SSE 12 15 - - - - - - - 16.9 1024.0 -
01/10:30pm SSE 12 16 - - - - - - - 17.1 1024.1 0.0
01/10:00pm SE 13 17 - - - - - - - 17.2 1024.1 0.0
01/09:30pm SSE 14 17 - - - - - - - 17.4 1024.2 0.0
01/09:00pm SSE 14 18 - - - - - - - 17.4 1024.0 0.0
01/08:30pm SSE 14 17 - - - - - - - 17.4 1024.0 0.0
01/08:00pm SSE 13 18 - - - - - - - 17.4 1023.9 0.0
01/07:30pm SSE 14 17 - - - - - - - 17.6 1023.7 0.0
01/07:00pm SSE 14 17 - - - - - - - 17.4 1023.7 0.0
01/06:30pm SSE 14 17 - - - - - - - 17.6 1023.3 0.0
01/06:00pm SSE 13 17 - - - - - - - 18.0 1023.2 0.0
01/05:30pm SSE 14 18 - - - - - - - 18.7 1022.9 0.0
01/05:00pm SSE 14 17 - - - - - - - 19.3 1022.9 0.0
01/04:30pm SE 15 18 - - - - - - - 19.9 1022.9 0.0
01/04:00pm SE 14 19 - - - - - - - 20.6 1022.8 0.0
01/03:30pm SE 15 19 - - - - - - - 20.4 1022.7 0.0
01/03:00pm SE 15 17 - - - - - - - 20.6 1022.7 0.0
01/02:30pm SE 14 17 - - - - - - - 20.0 1022.8 0.0
01/02:00pm SE 14 18 - - - - - - - 21.2 1023.0 0.0
01/01:30pm SE 16 20 - - - - - - - 20.8 1023.2 0.0
01/01:00pm SE 16 20 - - - - - - - 20.3 1023.4 0.0
01/12:30pm ESE 16 20 - - - - - - - 20.7 1023.5 0.0
01/12:00pm ESE 16 21 - - - - - - - 20.0 1023.8 0.0
01/11:30am ESE 17 22 - - - - - - - 20.4 1024.0 0.0
01/11:00am SE 17 21 - - - - - - - 19.8 1024.2 0.0
01/10:30am SE 17 23 - - - - - - - 19.2 1024.2 0.0
01/10:00am SE 17 22 - - - - - - - 18.5 1024.1 0.0
01/09:30am SE 17 21 - - - - - - - 18.3 1024.0 0.0
01/09:00am SE 17 22 - - - - - - Recent precip. 17.8 1023.9 2.0
01/08:30am SE 18 22 - - - - - - - 17.6 1023.9 1.6
01/08:00am SE 12 19 - - - - - - - 17.7 1023.6 1.2
01/07:30am SSE 9 11 - - - - - - - 17.6 1023.2 0.8
01/07:00am SSE 11 13 - - - - - - - 17.1 1022.9 0.8
01/06:30am SSW 10 13 - - - - - - - 17.5 1022.9 0.0
01/06:00am S 7 10 - - - - - - - 17.7 1022.7 0.0
01/05:30am SSW 7 9 - - - - - - - 17.9 1022.5 0.0
01/05:00am S 8 11 - - - - - - - 18.0 1022.4 0.0
01/04:30am S 7 10 - - - - - - - 18.3 1022.2 0.0
01/04:00am E 2 5 - - - - - - - 17.3 1022.0 0.0
01/03:30am ESE 4 5 - - - - - - - 18.2 1022.2 0.0
01/03:00am SE 5 8 - - - - - - - 18.5 1022.3 0.0
01/02:30am SE 5 6 - - - - - - - 18.6 1022.3 0.0
01/02:00am SSE 6 9 - - - - - - - 18.6 1022.4 0.0
01/01:30am S 8 10 - - - - - - - 19.0 1022.6 0.0
01/01:00am SSW 8 11 - - - - - - - 18.8 1022.7 0.0
01/12:30am S 7 9 - - - - - - - 18.2 1022.9 0.0
01/12:00am SSW 6 7 - - - - - - - 18.1 1022.9 0.0
 
Date/Time
WST
Wind Sea
Height
m
Swell Vis
km
Cloud Weather Temp
°C
Press
MSL
hPa
Rain since
9am
mm
Dir  Spd
kts
Gust
kts
Height
m
Period
s
Dir
31/11:30pm S 7 9 - - - - - - - 18.8 1023.2 0.0
31/11:00pm S 7 9 - - - - - - - 18.7 1023.3 0.0
31/10:30pm SSW 7 9 - - - - - - - 18.4 1023.5 0.0
31/10:00pm S 8 10 - - - - - - - 18.5 1023.6 0.0
31/09:30pm S 8 11 - - - - - - - 18.3 1023.6 0.0
31/09:00pm SSW 8 10 - - - - - - - 18.6 1023.4 0.0
31/08:30pm SSW 9 12 - - - - - - - 18.5 1023.3 0.0
31/08:00pm SSW 11 14 - - - - - - - 19.0 1022.9 0.0
31/07:30pm SSW 12 14 - - - - - - - 18.9 1022.4 0.0
31/07:00pm SSW 11 13 - - - - - - - 19.0 1022.2 0.0
31/06:30pm SSW 11 13 - - - - - - - 19.0 1022.1 0.0
31/06:00pm SSW 11 13 - - - - - - - 19.5 1022.0 0.0
31/05:30pm SSW 11 14 - - - - - - - 20.3 1021.8 0.0
31/05:00pm S 11 13 - - - - - - - 21.0 1021.4 0.0
31/04:30pm S 11 15 - - - - - - - 21.9 1021.2 0.0
31/04:00pm SSW 7 9 - - - - - - - 21.1 1021.2 0.0
31/03:30pm SSW 9 12 - - - - - - - 21.3 1021.3 0.0
31/03:00pm SSW 9 11 - - - - - - - 22.6 1021.2 0.0
31/02:30pm SW 9 12 - - - - - - - 21.5 1021.0 0.0
31/02:00pm SW 8 10 - - - - - - - 22.1 1021.1 0.0
31/01:30pm SW 8 10 - - - - - - - 22.5 1021.1 0.0
31/01:00pm SW 7 9 - - - - - - - 22.9 1021.0 0.0
31/12:30pm WSW 7 8 - - - - - - - 22.1 1021.2 0.0
31/12:00pm W 5 7 - - - - - - - 22.1 1021.4 0.0
31/11:30am WSW 5 7 - - - - - - - 21.8 1021.6 0.0
31/11:00am WSW 5 7 - - - - - - - 21.6 1021.6 0.0
31/10:30am SSW 5 8 - - - - - - - 21.1 1021.5 0.0
31/10:00am SW 4 6 - - - - - - - 20.6 1021.4 0.0
31/09:30am S 3 6 - - - - - - - 20.8 1021.5 0.0
31/09:00am SSE 4 6 - - - - - - - 20.1 1021.4 -
31/08:30am S 4 5 - - - - - - - 19.5 1021.1 -
31/08:00am CALM 0 0 - - - - - - - 18.9 1021.1 -
31/07:30am S 4 5 - - - - - - - 16.3 1020.8 -
31/07:00am SSW 5 6 - - - - - - - 14.8 1020.5 -
31/06:30am SSW 6 7 - - - - - - - 15.8 1020.3 -
31/06:00am SSW 7 8 - - - - - - - 16.4 1020.1 -
31/05:30am SSW 7 8 - - - - - - - 16.5 1019.8 -
31/05:00am SSW 7 9 - - - - - - - 16.9 1019.7 -
31/04:30am SSW 7 8 - - - - - - - 16.5 1019.5 -
31/04:00am SSW 7 8 - - - - - - - 16.6 1019.6 -
31/03:30am SSW 7 8 - - - - - - - 17.0 1019.7 -
31/03:00am SSW 7 9 - - - - - - - 17.0 1019.7 -
31/02:30am SSW 8 10 - - - - - - - 17.3 1019.7 -
31/02:00am SSW 7 9 - - - - - - - 16.9 1019.9 -

Other formats

Comma delimited format used in spreadsheet applications
http://www.bom.gov.au/fwo/IDW60701/IDW60701.94405.axf

JavaScript Object Notation format (JSON) in row-major order
http://www.bom.gov.au/fwo/IDW60701/IDW60701.94405.json

Data quality

Most of these data are generated automatically and are frequently updated. Quality checks on data are not normally performed. It is possible for incorrect values to appear. Refer to information at About Latest Weather Observations and please check the disclaimer before using these data.